TimeEDT,TemperatureF,Dew PointF,Humidity,Sea Level PressureIn,VisibilityMPH,Wind Direction,Wind SpeedMPH,Gust SpeedMPH,PrecipitationIn,Events,Conditions,WindDirDegrees,DateUTC
12:52 AM,61.0,57.9,90,30.03,6.0,Calm,Calm,-,0.00,,Overcast,0,2012-10-03 04:52:00
1:10 AM,60.8,57.2,88,30.03,5.0,North,3.5,-,N/A,,Overcast,10,2012-10-03 05:10:00
1:24 AM,60.8,57.2,88,30.03,2.0,North,3.5,-,N/A,,Overcast,10,2012-10-03 05:24:00
1:52 AM,61.0,57.9,90,30.02,3.0,Calm,Calm,-,N/A,,Overcast,0,2012-10-03 05:52:00
2:18 AM,60.8,57.2,88,30.02,2.0,Calm,Calm,-,N/A,,Overcast,0,2012-10-03 06:18:00
2:52 AM,61.0,57.9,90,30.03,1.8,North,3.5,-,N/A,,Overcast,350,2012-10-03 06:52:00
3:16 AM,60.8,57.2,88,30.03,2.0,North,3.5,-,0.01,,Overcast,360,2012-10-03 07:16:00
3:28 AM,60.8,59.0,94,30.02,1.8,North,3.5,-,0.01,,Overcast,10,2012-10-03 07:28:00
3:52 AM,61.0,59.0,93,30.02,2.0,North,3.5,-,0.01,,Overcast,10,2012-10-03 07:52:00
4:26 AM,60.8,59.0,94,30.03,3.0,Calm,Calm,-,N/A,,Overcast,0,2012-10-03 08:26:00
4:34 AM,60.8,59.0,94,30.03,2.5,North,3.5,-,N/A,,Overcast,10,2012-10-03 08:34:00
4:52 AM,61.0,59.0,93,30.04,2.0,Calm,Calm,-,N/A,,Overcast,0,2012-10-03 08:52:00
5:28 AM,60.8,59.0,94,30.04,1.8,NNE,3.5,-,N/A,,Overcast,20,2012-10-03 09:28:00
5:37 AM,60.8,59.0,94,30.04,2.0,Calm,Calm,-,N/A,,Overcast,0,2012-10-03 09:37:00
5:52 AM,61.0,59.0,93,30.05,1.8,North,3.5,-,N/A,,Overcast,360,2012-10-03 09:52:00
6:08 AM,60.8,59.0,94,30.04,2.0,NNE,3.5,-,N/A,,Overcast,30,2012-10-03 10:08:00
6:52 AM,61.0,59.0,93,30.06,1.5,NNE,3.5,-,N/A,,Overcast,20,2012-10-03 10:52:00
7:52 AM,62.1,59.0,90,30.07,1.0,NNE,4.6,-,N/A,,Overcast,20,2012-10-03 11:52:00
8:40 AM,62.6,59.0,88,30.08,2.5,NE,5.8,-,N/A,,Overcast,40,2012-10-03 12:40:00
8:52 AM,62.1,60.1,93,30.08,3.0,NNE,3.5,-,N/A,,Overcast,20,2012-10-03 12:52:00
9:52 AM,64.0,60.1,87,30.09,6.0,NNE,3.5,-,0.00,,Overcast,30,2012-10-03 13:52:00
10:52 AM,64.9,61.0,87,30.09,9.0,NNE,4.6,-,N/A,,Overcast,30,2012-10-03 14:52:00
11:52 AM,66.9,62.1,84,30.10,10.0,North,3.5,-,N/A,,Overcast,350,2012-10-03 15:52:00
12:21 PM,66.2,62.6,88,30.10,10.0,Calm,Calm,-,N/A,,Overcast,0,2012-10-03 16:21:00
12:52 PM,68.0,63.0,84,30.08,10.0,Calm,Calm,-,N/A,,Overcast,0,2012-10-03 16:52:00
1:52 PM,69.1,64.0,84,30.07,10.0,Calm,Calm,-,N/A,,Overcast,0,2012-10-03 17:52:00
2:52 PM,71.1,64.0,78,30.07,10.0,Calm,Calm,-,N/A,,Overcast,0,2012-10-03 18:52:00
3:52 PM,71.1,64.9,81,30.07,10.0,NE,3.5,-,N/A,,Overcast,50,2012-10-03 19:52:00
4:52 PM,70.0,64.9,84,30.08,10.0,ENE,3.5,-,N/A,,Overcast,70,2012-10-03 20:52:00
5:52 PM,69.1,64.9,87,30.09,10.0,ENE,3.5,-,N/A,,Overcast,70,2012-10-03 21:52:00
6:52 PM,68.0,64.0,87,30.10,8.0,ENE,5.8,-,N/A,,Overcast,70,2012-10-03 22:52:00
7:52 PM,66.9,64.0,90,30.11,5.0,ENE,4.6,-,0.00,Rain,Light Rain,60,2012-10-03 23:52:00
8:52 PM,66.9,64.0,90,30.13,6.0,Calm,Calm,-,0.00,,Overcast,0,2012-10-04 00:52:00
9:03 PM,66.2,64.4,94,30.13,7.0,Calm,Calm,-,N/A,,Overcast,0,2012-10-04 01:03:00
9:52 PM,66.0,64.0,93,30.14,3.0,Calm,Calm,-,0.00,,Overcast,0,2012-10-04 01:52:00
10:05 PM,66.2,62.6,88,30.13,2.0,NE,4.6,-,N/A,,Overcast,40,2012-10-04 02:05:00
10:42 PM,66.2,62.6,88,30.14,3.0,NNE,3.5,-,N/A,,Overcast,30,2012-10-04 02:42:00
11:52 PM,64.9,62.1,90,30.14,6.0,NNE,4.6,-,N/A,,Overcast,30,2012-10-04 03:52:00